Theta_e
335 340 339 337 337 343 342 342 341 342 342 339 336 329 320 315 308 311 314 313 311 311 312 312 311 311 310 308 307 307 307 310 313 313 312 311 308 310 310 308 310 310 311
343 342 340 338 340 341 342 342 342 342 339 336 334 324 316 309 310 314 314 311 311 311 312 311 311 310 308 306 305 306 306 308 311 313 311 310 310 311 310 309 310 310 311
341 342 341 341 341 341 340 340 342 341 339 333 331 318 312 308 312 314 312 310 311 312 311 310 311 309 306 304 303 305 307 308 309 311 310 309 310 309 309 308 309 308 309
342 342 342 342 340 334 336 338 340 338 334 335 324 312 308 311 313 311 311 311 312 311 310 310 310 308 305 303 303 306 307 310 309 310 309 308 308 309 308 307 307 308 308
342 341 341 337 334 334 337 341 337 334 334 328 314 309 310 312 314 312 312 312 311 310 310 310 309 307 305 303 304 307 308 310 310 309 307 306 307 308 306 306 307 307 307
330 333 338 335 333 337 339 338 332 333 326 317 311 310 311 314 313 312 312 311 310 310 310 309 308 305 303 302 305 306 307 308 307 307 306 307 308 305 304 306 306 306 305
332 334 333 332 333 338 330 338 335 327 321 312 311 312 313 313 313 312 313 311 311 311 310 308 306 304 302 302 304 305 306 305 302 302 304 304 305 300 299 304 306 307 306
333 334 336 335 336 338 338 335 328 323 313 311 311 313 314 315 312 314 312 311 311 311 309 307 305 304 302 301 303 303 303 302 302 302 302 303 302 299 299 303 304 306 305
335 336 337 337 337 338 334 330 326 315 312 312 312 313 317 314 315 314 312 312 312 310 308 306 304 303 300 300 301 301 301 301 301 302 303 302 299 298 300 303 304 304 304
336 337 336 334 336 337 336 330 318 312 311 311 313 316 316 314 315 313 313 313 311 309 307 305 304 302 300 299 300 300 301 301 301 301 301 299 298 297 299 300 300 303 302
332 332 332 333 336 337 333 329 315 312 312 313 316 317 316 315 314 313 314 312 310 309 306 305 303 301 300 299 299 299 300 300 300 301 300 299 298 297 298 299 299 299 300
329 331 330 334 336 333 334 328 322 315 314 316 317 317 317 316 314 314 315 312 309 308 306 304 303 301 299 298 298 299 299 299 301 300 300 299 298 297 297 298 299 298 298
330 329 330 333 332 335 328 321 315 314 315 317 317 317 317 317 315 315 314 310 307 306 305 304 302 301 299 298 298 298 298 298 300 299 299 297 297 295 296 298 298 299 299
330 329 327 330 332 327 319 316 315 315 316 316 317 317 317 317 314 315 312 308 307 306 305 303 301 300 298 297 297 297 297 297 297 298 298 297 296 296 295 297 298 299 298
326 326 326 328 327 317 316 316 316 315 314 315 316 316 316 314 313 313 310 308 307 305 304 302 301 299 298 297 297 297 296 296 296 297 297 296 295 296 296 297 297 297 297
324 326 328 326 326 325 317 316 315 314 315 315 313 314 313 312 311 309 308 307 305 304 302 301 300 298 297 296 296 296 295 295 295 296 296 295 295 295 296 296 296 296 296
328 325 326 326 325 323 316 315 316 315 313 312 312 311 311 310 309 309 307 304 303 302 301 300 298 297 296 295 295 295 295 294 294 294 294 294 294 294 295 295 295 295 295
325 326 327 326 324 320 315 316 316 312 309 308 308 309 309 310 309 307 305 303 302 301 299 298 296 296 295 294 294 294 294 293 293 293 293 293 293 293 294 294 294 294 294
321 321 325 324 323 317 316 316 313 310 308 307 308 309 308 306 305 303 303 303 302 300 297 296 295 295 294 293 293 294 293 293 292 293 293 292 292 293 293 293 293 292 293
317 321 324 324 318 316 316 315 312 309 308 309 309 308 305 303 302 301 301 301 300 297 295 294 294 293 293 292 292 293 293 292 292 292 291 291 292 292 292 292 292 292 292
323 324 322 317 316 316 315 313 312 309 309 309 310 310 309 306 303 301 301 300 298 295 294 293 293 293 292 292 292 292 292 291 291 291 291 291 292 292 292 292 292 291 291
324 320 318 316 316 315 313 313 313 310 311 311 311 310 307 305 303 301 300 299 296 295 294 293 292 291 291 292 292 291 291 290 290 291 290 291 291 291 291 291 291 291 291
321 317 315 316 315 314 313 313 313 311 312 312 312 310 304 303 301 300 299 298 296 295 293 292 291 291 291 291 291 291 290 290 289 290 290 290 291 291 291 290 291 291 290
316 316 315 315 314 315 315 314 313 313 313 313 311 308 303 302 300 299 299 298 296 295 293 292 291 291 291 290 290 290 290 289 289 289 289 290 290 290 290 290 290 290 290
315 315 315 315 315 315 314 314 314 314 313 312 309 306 303 301 299 299 298 297 295 294 292 291 290 290 290 289 289 289 289 289 289 289 289 289 288 289 289 289 289 289 289
315 314 314 313 313 313 313 312 312 311 310 307 306 304 302 300 299 299 298 296 296 294 292 290 290 289 289 289 289 289 289 289 289 288 288 288 289 289 289 288 288 289 289
Wind_Speed
50 42 49 50 50 47 43 38 33 29 25 22 18 18 16 14 15 16 15 13 11 9 6 3 2 6 7 7 7 7 8 8 6 8 11 15 18 18 21 22 18 17 17
38 45 47 48 51 44 40 39 33 29 26 23 19 19 18 15 17 17 15 14 11 9 5 1 3 5 6 6 7 6 6 8 7 9 12 16 16 17 20 20 20 17 16
44 48 45 48 48 41 39 38 35 32 26 25 20 21 18 19 19 17 16 15 11 8 4 1 3 4 5 6 5 6 8 9 10 9 11 13 13 17 21 20 19 19 16
46 50 47 45 44 39 36 36 36 31 29 21 23 22 21 20 19 18 17 14 11 7 4 1 3 4 5 5 5 5 7 8 10 9 12 12 13 15 18 20 22 20 19
50 49 47 42 36 37 44 41 36 33 26 25 26 25 22 20 21 19 16 14 10 6 3 2 4 5 6 7 6 5 8 8 8 10 12 13 13 16 19 19 20 21 20
47 46 48 43 41 34 40 37 36 31 29 29 27 25 23 22 20 18 16 13 9 6 3 3 5 7 7 9 7 9 9 9 11 10 10 11 14 18 18 16 18 20 22
50 48 48 45 40 39 37 35 35 33 32 31 29 26 24 23 21 19 15 12 9 5 3 4 6 6 7 6 7 10 10 11 12 12 12 13 15 21 20 16 17 16 16
50 46 48 46 46 39 46 44 39 35 35 33 29 26 26 24 23 19 16 13 9 5 4 5 6 7 6 6 7 8 10 10 11 12 12 13 18 19 16 17 19 16 12
45 41 47 50 47 47 47 44 38 38 36 32 28 28 27 26 22 18 16 13 9 7 5 6 8 8 7 8 7 9 8 8 10 11 10 12 15 15 16 14 17 17 17
48 49 50 45 43 47 40 37 39 36 34 30 29 29 27 25 23 18 15 12 10 7 6 6 9 8 9 9 7 9 7 8 9 7 8 10 14 15 16 19 19 16 18
46 49 50 46 47 42 39 35 35 34 32 32 33 30 27 23 23 19 14 11 8 7 6 7 6 8 9 9 9 10 9 9 7 8 7 10 14 16 18 18 19 18 17
45 48 42 44 49 48 42 44 39 36 37 37 35 33 29 25 21 20 16 11 9 6 5 7 5 8 9 9 9 11 10 9 5 6 8 12 13 15 16 15 15 17 19
50 43 42 47 47 46 50 45 44 40 41 39 37 34 31 27 24 21 17 14 10 7 7 5 6 7 9 8 10 9 8 7 5 8 10 12 13 16 14 13 14 15 15
45 45 48 50 48 46 43 42 44 43 42 39 37 35 33 31 29 25 21 17 12 10 8 7 6 6 7 7 8 7 7 8 9 9 10 11 11 13 15 15 14 13 12
44 48 48 46 44 46 42 41 41 36 36 37 36 35 35 33 29 24 20 17 14 11 8 8 6 5 7 7 7 6 8 7 9 9 8 10 11 12 13 13 14 13 14
47 44 44 43 40 36 38 40 30 28 29 28 28 29 30 25 23 21 19 15 13 10 9 8 6 6 7 6 6 6 6 7 9 8 8 11 12 12 12 12 12 13 14
47 48 52 50 45 40 38 35 37 34 28 25 24 23 22 23 21 21 20 19 14 11 8 8 7 7 7 6 7 6 6 7 9 8 8 11 11 10 12 11 12 13 14
53 52 49 52 51 44 43 41 39 38 38 35 29 25 22 21 22 21 21 17 16 12 8 9 10 9 8 7 7 7 6 6 7 8 7 10 11 10 10 11 11 12 13
46 50 53 49 47 47 45 41 39 40 38 37 33 28 25 23 22 21 19 14 12 11 12 12 11 10 9 9 8 8 6 6 6 6 8 10 11 9 10 10 11 14 14
52 53 50 48 44 44 43 41 40 41 39 36 33 32 31 28 27 25 20 15 13 12 13 13 12 11 11 10 10 9 7 6 6 5 8 9 10 9 10 10 10 11 12
46 40 38 42 45 44 43 40 40 40 39 37 32 29 26 26 27 24 19 15 13 13 13 13 12 12 12 12 11 9 7 6 5 6 7 9 9 9 9 9 9 11 11
34 34 37 43 42 38 37 37 39 40 38 34 30 26 25 23 24 22 18 16 16 14 13 13 12 12 13 13 12 10 7 6 6 6 8 9 8 8 8 8 9 9 9
33 36 39 39 39 38 38 35 38 39 36 32 27 28 27 24 23 20 18 16 15 14 13 13 13 13 13 12 12 11 8 6 7 7 8 8 7 7 7 7 7 8 9
33 34 38 38 37 38 37 35 34 35 34 31 32 31 28 26 23 21 17 17 16 15 14 14 14 14 13 13 11 10 8 7 8 8 8 7 8 7 6 7 7 7 7
31 35 36 35 35 35 35 34 32 31 30 32 32 29 27 27 24 21 20 18 17 15 14 14 15 14 13 12 11 10 8 7 8 9 8 7 7 7 6 7 6 6 6
31 30 31 34 34 33 33 33 32 31 30 30 29 28 28 27 24 22 21 19 17 15 14 15 15 14 14 13 12 10 7 7 7 8 9 7 6 5 5 6 7 5 6
Wind_Direction
207 209 208 211 213 212 208 203 203 199 196 200 194 195 193 192 194 186 183 179 174 170 156 122 14 350 349 359 360 12 20 25 18 4 357 354 358 347 350 353 352 350 354
196 209 210 215 213 211 205 204 201 200 193 195 193 189 188 189 187 182 180 175 172 163 155 100 3 350 356 358 5 14 20 27 23 9 356 2 353 350 349 353 1 360 4
208 212 211 215 213 201 206 204 196 199 194 188 193 188 186 185 179 177 181 177 172 166 150 87 356 1 8 358 13 12 32 27 26 15 2 3 353 352 358 354 2 7 6
202 209 211 212 203 204 206 204 200 195 190 189 190 183 183 177 174 176 179 176 170 159 148 94 19 12 23 17 16 28 42 44 31 19 9 360 360 358 356 358 6 8 5
205 210 208 206 204 208 203 196 193 191 188 189 182 180 177 176 177 177 179 175 164 155 148 71 39 30 34 39 52 56 55 45 32 22 10 6 1 3 0 0 6 5 11
205 212 209 202 195 200 193 193 190 191 184 185 180 180 174 174 171 175 179 169 163 157 117 54 45 39 39 54 74 66 60 48 34 28 20 6 4 2 359 5 8 9 10
210 204 200 200 200 192 192 204 196 187 185 181 180 176 172 171 170 171 174 165 161 150 98 61 53 44 49 63 64 60 52 39 37 33 28 13 9 6 9 10 8 13 10
202 204 203 202 194 188 190 193 188 186 184 181 176 174 172 172 169 172 169 165 160 139 105 69 60 53 52 63 61 49 42 45 42 30 23 12 7 6 17 16 11 11 18
196 196 194 196 190 190 184 185 184 183 181 179 176 173 176 171 170 174 169 165 163 146 108 89 71 61 69 80 67 61 48 51 43 31 16 356 4 17 30 34 21 15 21
196 197 199 194 194 182 184 184 181 180 179 177 174 176 177 172 169 172 169 171 163 137 115 92 75 67 68 75 77 80 78 59 49 32 356 6 24 28 34 33 29 21 22
198 198 197 194 189 183 172 184 179 179 180 176 175 173 174 175 169 169 171 173 163 140 132 103 82 75 70 76 77 80 77 64 41 36 28 28 30 33 34 30 32 36 28
199 201 194 192 191 180 182 181 184 185 181 177 174 173 171 172 176 174 172 176 165 152 142 118 94 71 67 72 78 70 67 59 50 48 42 32 30 37 38 32 34 34 36
196 194 193 189 183 178 181 181 179 180 179 177 177 176 173 175 179 180 177 178 169 160 145 127 105 75 73 73 71 64 73 79 67 56 49 39 32 42 48 46 40 40 34
196 193 188 183 182 175 180 182 180 177 180 180 179 180 180 181 182 181 180 178 173 164 157 145 115 96 88 82 77 87 78 76 69 62 48 41 37 43 47 49 45 46 45
191 186 181 178 173 171 176 186 185 182 187 186 186 186 182 183 183 182 181 178 173 162 166 148 122 99 90 89 90 80 76 72 71 61 57 51 42 45 49 49 49 43 40
185 182 171 165 164 174 186 186 183 190 192 194 188 183 181 178 176 174 174 172 162 161 158 147 136 130 111 110 102 98 97 86 73 63 57 57 49 51 54 53 51 45 40
185 178 168 168 176 183 187 189 182 186 181 179 175 174 176 170 174 173 171 165 160 161 156 161 156 141 139 139 128 123 110 95 74 64 59 60 58 54 58 55 51 47 39
181 180 178 172 170 180 185 188 184 176 168 165 165 166 165 171 172 171 167 166 166 170 171 169 159 155 153 143 139 135 123 99 90 86 69 67 66 61 64 61 55 52 46
187 179 173 172 171 179 182 182 178 172 166 161 159 159 162 165 164 166 165 169 175 177 173 166 157 163 159 147 153 147 139 117 99 89 81 68 69 68 66 59 44 45 48
177 175 169 171 175 177 177 179 177 171 167 163 163 163 160 165 164 168 172 169 177 175 169 161 164 165 159 155 155 153 142 116 102 95 86 75 73 72 74 67 58 53 54
167 170 174 172 173 177 178 179 176 171 169 169 167 167 168 170 173 173 171 172 174 169 164 163 163 164 158 159 156 156 143 128 117 106 93 83 80 76 74 73 68 60 63
173 173 172 175 173 174 176 176 175 174 173 172 171 170 171 177 176 176 172 172 170 168 167 164 162 166 160 158 159 154 149 144 125 114 99 91 82 76 77 76 74 64 61
180 168 172 171 172 173 173 174 176 177 174 177 179 176 176 179 179 177 176 177 175 173 171 166 166 165 163 164 159 154 155 149 133 121 108 106 94 88 84 82 79 74 60
166 164 171 169 168 173 177 176 178 181 184 185 182 181 179 178 180 182 183 181 181 179 175 170 168 168 169 165 163 158 152 148 135 123 113 110 97 83 76 77 72 69 63
165 169 168 166 170 174 175 177 177 180 182 181 179 181 181 180 182 187 185 184 183 181 177 174 170 170 173 168 165 162 158 144 136 126 115 109 97 85 85 84 82 71 67
167 169 167 164 168 172 173 172 173 175 178 180 181 182 179 178 184 186 184 184 182 179 178 176 175 175 174 173 170 169 159 142 137 133 122 115 111 105 97 83 82 75 68